DW8086 Weather Reports


Display with metric or nautical units.
time (UTC)temp
F
wind
direction
speed
MPH
gust
MPH
rain 1hr
in
rain 24hr
in
rain mn
in
humidity
%
barometer
mb
20260505075516 60 203 5.0 7.0 0.00 0.00 0.00 79 1011.0
20260505074516 60 203 3.0 5.0 0.00 0.00 0.00 78 1011.0
20260505073516 60 180 4.0 7.0 0.00 0.00 0.00 78 1011.0
20260505072516 60 180 1.0 3.0 0.00 0.00 0.00 78 1010.9
20260505071516 59 180 1.0 3.0 0.00 0.00 0.00 79 1010.8
20260505070516 59 0.0 2.0 0.00 0.00 0.00 79 1010.8
20260505065516 58 113 1.0 2.0 0.00 0.00 0.00 79 1010.8
20260505064536 58 113 1.0 2.0 0.00 0.00 0.00 79 1011.0
20260505063536 58 0.0 1.0 0.00 0.00 0.00 79 1011.0
20260505062516 59 180 1.0 3.0 0.00 0.00 0.00 78 1011.0
20260505061537 59 180 1.0 2.0 0.00 0.00 0.00 78 1011.0
20260505060516 59 180 1.0 3.0 0.00 0.00 0.00 77 1011.1
20260505055516 60 0.0 0.0 0.00 0.00 0.00 75 1011.1
20260505054516 60 180 1.0 3.0 0.00 0.00 0.00 75 1011.3
20260505053516 60 180 2.0 3.0 0.00 0.00 0.00 74 1011.2
20260505052517 60 203 2.0 3.0 0.00 0.00 0.00 74 1011.1
20260505051516 61 180 1.0 3.0 0.00 0.00 0.00 72 1011.2
20260505050516 61 203 1.0 2.0 0.00 0.00 0.00 72 1011.2
20260505041536 61 180 5.0 10.0 0.00 0.00 0.00 69 1011.5
20260505040516 61 180 3.0 6.0 0.00 0.00 0.00 69 1011.4
20260505035515 61 180 4.0 7.0 0.00 0.00 0.00 69 1011.4
20260505034515 61 225 2.0 4.0 0.00 0.00 0.00 68 1011.5
20260505033515 61 203 4.0 8.0 0.00 0.00 0.00 68 1011.5
20260505032535 61 180 2.0 4.0 0.00 0.00 0.00 69 1011.5
20260505031515 61 203 3.0 6.0 0.00 0.00 0.00 68 1011.7
20260505030515 61 180 3.0 4.0 0.00 0.00 0.00 68 1011.7
20260505025515 61 203 3.0 6.0 0.00 0.00 0.00 68 1011.9
20260505024515 61 203 2.0 5.0 0.00 0.00 0.00 68 1011.8
20260505023515 61 180 2.0 6.0 0.00 0.00 0.00 68 1011.9
20260505022515 61 203 2.0 3.0 0.00 0.00 0.00 67 1011.9
20260505021535 61 180 4.0 6.0 0.00 0.00 0.00 67 1012.0
20260505020515 61 0.0 1.0 0.00 0.00 0.00 66 1012.0
20260505015535 61 113 1.0 4.0 0.00 0.00 0.00 65 1012.0
20260505014555 62 135 2.0 4.0 0.00 0.00 0.00 64 1011.9
20260505013515 62 0.0 2.0 0.00 0.00 0.00 62 1011.9
20260505012515 62 203 3.0 6.0 0.00 0.00 0.00 61 1011.8
20260505011515 63 203 2.0 4.0 0.00 0.00 0.00 60 1011.7
20260505010535 63 113 2.0 4.0 0.00 0.00 0.00 58 1011.5
20260505005515 64 0.0 1.0 0.00 0.00 0.00 57 1011.4
20260505004515 64 180 3.0 4.0 0.00 0.00 0.00 55 1011.3
20260505003515 65 158 1.0 3.0 0.00 0.00 0.00 54 1011.2
20260505002515 65 180 1.0 2.0 0.00 0.00 0.00 54 1011.1
20260505001535 66 135 2.0 3.0 0.00 0.00 0.00 53 1011.0
20260505000515 66 180 2.0 3.0 0.00 0.00 0.00 52 1010.8
20260504235515 67 203 2.0 5.0 0.00 0.00 0.00 51 1010.6
20260504234515 67 203 4.0 7.0 0.00 0.00 0.00 51 1010.6
20260504233515 68 180 3.0 7.0 0.00 0.00 0.00 50 1010.4
20260504232535 68 203 4.0 7.0 0.00 0.00 0.00 50 1010.3
20260504231515 69 135 2.0 4.0 0.00 0.00 0.00 49 1010.2
20260504230515 70 225 4.0 6.0 0.00 0.00 0.00 48 1010.2
20260504225516 71 135 3.0 6.0 0.00 0.00 0.00 47 1010.1
20260504224535 72 203 4.0 6.0 0.00 0.00 0.00 43 1010.1
20260504223515 73 203 3.0 6.0 0.00 0.00 0.00 35 1009.9
20260504222515 74 248 3.0 5.0 0.00 0.00 0.00 35 1009.8
20260504221516 73 270 2.0 6.0 0.00 0.00 0.00 36 1009.9
20260504220515 74 203 4.0 6.0 0.00 0.00 0.00 36 1010.0
20260504215515 73 203 4.0 5.0 0.00 0.00 0.00 36 1010.1
20260504214515 74 248 4.0 7.0 0.00 0.00 0.00 35 1010.1
20260504213515 74 203 3.0 6.0 0.00 0.00 0.00 36 1010.1
20260504212515 74 248 4.0 7.0 0.00 0.00 0.00 35 1010.2
20260504211535 74 225 6.0 13.0 0.00 0.00 0.00 36 1010.2
20260504210515 74 248 4.0 7.0 0.00 0.00 0.00 36 1010.1
20260504205515 74 203 3.0 6.0 0.00 0.00 0.00 36 1010.2
20260504204515 74 248 7.0 11.0 0.00 0.00 0.00 35 1010.2
20260504203515 74 203 5.0 11.0 0.00 0.00 0.00 35 1010.2
20260504202515 74 270 3.0 5.0 0.00 0.00 0.00 35 1010.1
20260504201515 74 248 4.0 7.0 0.00 0.00 0.00 38 1010.1
20260504200516 74 225 6.0 9.0 0.00 0.00 0.00 36 1010.3
20260504195515 74 203 4.0 7.0 0.00 0.00 0.00 38 1010.5
20260504194515 73 203 4.0 7.0 0.00 0.00 0.00 38 1010.5
20260504193515 72 203 8.0 12.0 0.00 0.00 0.00 36 1010.6
20260504192515 72 203 6.0 8.0 0.00 0.00 0.00 36 1010.8
20260504191515 72 203 6.0 12.0 0.00 0.00 0.00 36 1010.9
20260504190515 72 203 6.0 10.0 0.00 0.00 0.00 39 1011.2
20260504185515 72 158 5.0 10.0 0.00 0.00 0.00 36 1011.2
20260504184515 72 293 3.0 6.0 0.00 0.00 0.00 38 1011.3
20260504183515 72 270 9.0 17.0 0.00 0.00 0.00 38 1011.5
20260504182515 71 248 8.0 14.0 0.00 0.00 0.00 36 1011.6
20260504181516 72 225 4.0 7.0 0.00 0.00 0.00 39 1011.8
20260504180516 71 203 4.0 6.0 0.00 0.00 0.00 39 1011.8
20260504175515 71 270 5.0 8.0 0.00 0.00 0.00 40 1011.9
20260504174515 71 203 4.0 9.0 0.00 0.00 0.00 38 1012.1
20260504173515 70 248 9.0 17.0 0.00 0.00 0.00 41 1012.2
20260504172535 70 158 4.0 8.0 0.00 0.00 0.00 43 1012.3
20260504171515 69 203 2.0 4.0 0.00 0.00 0.00 42 1012.4
20260504170536 70 225 5.0 10.0 0.00 0.00 0.00 44 1012.6
20260504150535 66 203 4.0 6.0 0.00 0.00 0.00 48 1013.9
20260504140542 63 225 5.0 9.0 0.00 0.00 0.00 50 1014.2
20260504130515 59 225 5.0 8.0 0.00 0.00 0.00 59 1015.0
20260504110516 49 180 4.0 6.0 0.00 0.00 0.00 75 1015.5
20260504100516 45 180 2.0 4.0 0.00 0.00 0.00 74 1015.3
20260504081515 46 0.0 1.0 0.00 0.00 0.00 68 1015.1
20260504080516 46 180 1.0 2.0 0.00 0.00 0.00 67 1015.0